Location: Les Coudrans
(46.1056°N, 1.1158°W)
Time: 06:21:36
(UTC+00:00)

Resurs 1-3 - Pass Details

Date: 03 March 2021
Orbit: 629 x 633 km, 97.9° (Epoch: 18 April)

Event Time Altitude Azimuth Distance (km) Brightness Sun altitude
Exits shadow 19:38:48 35° 65° (ENE) 1,020 4.2 -18.9°
Drops below altitude 10° 19:42:42 10° 3° (N) 2,027 6.3 -19.6°
Sets 19:45:02 0° 355° (N) 2,940 7.3 -20.0°
